This demonstration page uses our WeatherBlox Daily Observations layout. Learn more.

Left ArrowRight Arrow

Hourly Observations for August 2, 2021

Temp ( °F °C ) Dew Point ( °F °C ) Humidity (%) Winds ( mph kmh ) Pressure ( in mb ) Visibility ( mi km ) Precip ( " mm )
12:15 am 00:15 Clear 61 16 58 14.4 90 90 ESE 8 13 30.20 1023 7 11 N/A
12:35 am 00:35 Clear 63 17.1 58 14.5 85 85 SSE 5 7 30.20 1023 10 16 N/A
12:55 am 00:55 Clear 63 17.1 58 14.4 84 84 S 3 6 30.20 1023 10 16 N/A
1:15 am 01:15 Clear 63 17 57 14 83 83 N N/A 30.20 1023 10 16 N/A
1:35 am 01:35 Clear 61 16.3 57 14 86 86 N N/A 30.21 1023 10 16 N/A
1:55 am 01:55 Clear 61 16.3 57 14 86 86 SSW 3 6 30.21 1023 10 16 N/A
2:15 am 02:15 Clear 61 16.3 57 13.7 85 85 N N/A 30.22 1023 10 16 N/A
2:35 am 02:35 Clear 61 16.2 57 14 87 87 SW 5 7 30.21 1023 10 16 N/A
2:55 am 02:55 Clear 61 16.2 57 13.8 86 86 SW 5 7 30.21 1023 10 16 N/A
3:15 am 03:15 Clear 61 16.3 57 13.9 86 86 SW 5 7 30.21 1023 10 16 N/A
3:35 am 03:35 Clear 61 16.3 57 13.8 85 85 N N/A 30.20 1023 10 16 N/A
3:55 am 03:55 Clear 61 15.9 56 13.6 86 86 N N/A 30.20 1023 10 16 N/A
4:15 am 04:15 Clear 60 15.5 56 13.5 88 88 N N/A 30.20 1023 10 16 N/A
4:35 am 04:35 Clear 59 15 56 13.5 91 91 N N/A 30.20 1023 7 11 N/A
4:55 am 04:55 Clear 57 14 55 13 94 94 N N/A 30.21 1023 7 11 N/A
5:15 am 05:15 Clear with Mist and Fog 57 14.1 56 13.2 94 94 N N/A 30.21 1023 5 8 N/A
5:35 am 05:35 Clear 58 14.3 56 13.4 94 94 N N/A 30.20 1023 7 11 N/A
5:55 am 05:55 Clear 57 14 55 12.7 92 92 N N/A 30.22 1023 7 11 N/A
6:15 am 06:15 Clear 57 14.1 55 13 93 93 N N/A 30.21 1023 7 11 N/A
6:35 am 06:35 Clear 57 14 55 12.9 93 93 N N/A 30.21 1023 7 11 N/A
6:55 am 06:55 Sunny 58 14.3 55 13 92 92 N N/A 30.21 1023 7 11 N/A
7:15 am 07:15 Sunny 58 14.3 55 13 92 92 N N/A 30.21 1023 7 11 N/A
7:35 am 07:35 Sunny 59 15 56 13.3 90 90 N N/A 30.21 1023 10 16 N/A
7:55 am 07:55 Sunny 60 15.8 58 14.4 91 91 N N/A 30.20 1023 7 11 N/A
8:15 am 08:15 Sunny 64 17.8 57 14.1 79 79 W 3 6 30.18 1022 10 16 N/A
8:35 am 08:35 Sunny 65 18.4 57 14.1 76 76 W 3 6 30.18 1022 10 16 N/A
8:55 am 08:55 Sunny 66 19.1 57 14 72 72 N N/A 30.18 1022 10 16 N/A
9:15 am 09:15 Sunny 68 20 57 13.8 68 68 N N/A 30.18 1022 10 16 N/A
9:35 am 09:35 Sunny 70 21 57 13.9 64 64 N N/A 30.17 1022 10 16 N/A
9:55 am 09:55 Sunny 71 21.8 57 13.9 61 61 SSW 5 7 30.15 1021 10 16 N/A
10:15 am 10:15 Sunny 72 22.1 59 14.8 63 63 SSW 3 6 30.14 1021 10 16 N/A
10:35 am 10:35 Sunny 73 23 57 13.7 56 56 S 6 9 30.13 1020 10 16 N/A
10:55 am 10:55 Sunny 74 23.5 58 14.7 58 58 SW 3 6 30.12 1020 10 16 N/A
11:15 am 11:15 Sunny 75 24 59 14.8 57 57 S 3 6 30.11 1020 10 16 N/A
11:35 am 11:35 Sunny 76 24.2 58 14.5 55 55 S 5 7 30.11 1020 10 16 N/A
11:55 am 11:55 Sunny 76 24.5 58 14.4 53 53 S 5 7 30.11 1020 10 16 N/A
12:15 pm 12:15 Sunny 77 24.9 59 15.2 55 55 SSE 7 11 30.10 1019 10 16 N/A
12:35 pm 12:35 Sunny 77 24.9 58 14.5 53 53 S 6 9 30.10 1019 10 16 N/A
12:55 pm 12:55 Sunny 78 25.4 60 15.5 54 54 SSE 6 9 30.08 1019 10 16 N/A
1:15 pm 13:15 Sunny 78 25.6 58 14.2 49 49 SE 8 13 30.07 1018 10 16 N/A
1:35 pm 13:35 Sunny 78 25.5 58 14.3 50 50 SE 5 7 30.07 1018 10 16 N/A
1:55 pm 13:55 Sunny 78 25.8 58 14.4 49 49 SSE 5 7 30.07 1018 10 16 N/A
2:15 pm 14:15 Partly Cloudy 79 26.2 58 14.2 48 48 SSE 8 13 30.06 1018 10 16 N/A
2:35 pm 14:35 Partly Cloudy 79 26.2 60 15.3 51 51 SSE 5 7 30.06 1018 10 16 N/A
2:55 pm 14:55 Partly Cloudy 79 26.2 61 16.1 54 54 SE 7 11 30.05 1017 10 16 N/A
3:15 pm 15:15 Sunny 80 26.7 61 15.9 52 52 SSE 8 13 30.03 1017 10 16 N/A
3:35 pm 15:35 Sunny 79 26.2 60 15.6 52 52 SE 8 13 30.04 1017 10 16 N/A
3:55 pm 15:55 Sunny 80 26.5 60 15.7 52 52 SE 8 13 30.02 1017 10 16 N/A
4:15 pm 16:15 Sunny 81 27 61 15.9 51 51 SSE 9 15 30.01 1016 10 16 N/A
4:35 pm 16:35 Sunny 81 27.1 60 15.3 48 48 SE 9 15 30.01 1016 10 16 N/A
4:55 pm 16:55 Sunny 81 27 60 15.5 49 49 ESE 8 13 30.00 1016 10 16 N/A
5:15 pm 17:15 Sunny 80 26.5 62 16.7 55 55 ESE 9 15 30.00 1016 10 16 N/A
5:35 pm 17:35 Sunny 80 26.8 61 16.3 53 53 ESE 12 19 29.99 1016 10 16 N/A
5:55 pm 17:55 Sunny 79 26.3 60 15.8 52 52 ESE 10 17 30.00 1016 10 16 N/A
6:15 pm 18:15 Sunny 79 26 61 16.1 54 54 ESE 12 19 30.00 1016 10 16 N/A
6:30 pm 18:30 Sunny 78 25.5 61 16 56 56 ESE 10 17 30.00 1016 10 16 N/A
6:55 pm 18:55 Sunny 77 25 61 16.2 58 58 ESE 12 19 30.00 1016 10 16 N/A
7:15 pm 19:15 Sunny 76 24.5 60 15.6 58 58 ESE 10 17 30.00 1016 10 16 N/A
7:35 pm 19:35 Sunny 75 23.9 60 15.5 59 59 ESE 9 15 30.00 1016 10 16 N/A
7:55 pm 19:55 Sunny 73 23 60 15.6 63 63 ESE 8 13 30.01 1016 10 16 N/A
8:15 pm 20:15 Sunny 72 22 60 15.7 68 68 ESE 8 13 30.02 1017 10 16 N/A
8:35 pm 20:35 Sunny 71 21.5 60 15.5 69 69 ESE 7 11 30.02 1017 10 16 N/A
8:55 pm 20:55 Clear 69 20.6 60 15.6 73 73 ESE 8 13 30.03 1017 10 16 N/A
9:15 pm 21:15 Clear 67 19.5 60 15.5 78 78 ESE 7 11 30.04 1017 10 16 N/A
9:35 pm 21:35 Clear 67 19.3 60 15.5 79 79 SE 8 13 30.05 1018 10 16 N/A
9:55 pm 21:55 Clear 66 19 60 15.5 80 80 SE 7 11 30.07 1018 10 16 N/A
10:15 pm 22:15 Partly Cloudy 66 18.7 60 15.5 82 82 SE 6 9 30.08 1019 10 16 N/A
10:35 pm 22:35 Cloudy 66 19 60 15.3 79 79 SE 7 11 30.08 1018 10 16 N/A
10:55 pm 22:55 Cloudy 66 19.1 59 15.1 78 78 SE 8 13 30.07 1018 10 16 N/A
11:15 pm 23:15 Mostly Cloudy 66 18.8 59 15 79 79 SSE 6 9 30.08 1019 10 16 N/A
11:35 pm 23:35 Mostly Cloudy 65 18.5 58 14.7 79 79 SSE 7 11 30.08 1019 10 16 N/A
11:55 pm 23:55 Partly Cloudy 65 18.1 58 14.5 80 80 SE 8 13 30.08 1019 10 16 N/A

Powered by AerisWeather